Location: Grassland Mountain Observatory
(35.7543°N, 82.8038°W)
Time: 05:26:14
(UTC-05:00)

Envisat - Pass Details

Date: 02 December 2021
Orbit: 764 x 766 km, 98.2° (Epoch: 19 January)

Event Time Altitude Azimuth Distance (km) Brightness Sun altitude
Rises 18:01:24 0° 211° (SSW) 3,215 7.1 -9.0°
Reaches altitude 10° 18:04:47 10° 235° (SW) 2,295 6.9 -9.6°
Maximum altitude 18:07:29 14° 268° (W) 2,005 6.4 -10.1°
Drops below altitude 10° 18:10:12 10° 301° (WNW) 2,303 6.1 -10.6°
Sets 18:13:38 0° 325° (NW) 3,235 6.5 -11.3°
